Location: ČR
(50.0000°N, 15.0000°E)
Time: 14:29:26
(UTC+00:00)

Explorer 7 - Pass Details

Date: 21 October 2021
Orbit: 483 x 675 km, 50.3° (Epoch: 27 November)

Event Time Altitude Azimuth Distance (km) Brightness Sun altitude
Rises 22:19:06 0° 246° (WSW) 2,718 - -50.7°
Reaches altitude 10° 22:21:16 10° 244° (WSW) 1,857 - -50.7°
Maximum altitude 22:25:30 69° 162° (SSE) 634 - -50.8°
Drops below altitude 10° 22:30:01 10° 79° (E) 1,985 - -50.9°
Sets 22:32:25 0° 77° (ENE) 2,924 - -51.0°
